Simultaneous Nadir Overpasses (SNOs) Predictions

Prediction of SNOs between GOES-16 and LANDSAT-8 Satellite Orbit:

Table of predicted SNOs for the next 14.0 days since TLE Epoch: 11/30/2019
Index Date Time (GOES-16) GOES-16 Lat,Lon LANDSAT-8 Lat,Lon Distance(km) Time Diff (sec)
1 12/01/2019 15:12:55 0.03, -75.23 0.06, -75.38 17.32 80
2 12/03/2019 15:03:24 0.03, -75.25 -0.56, -72.42 321.04 80
3 12/04/2019 03:22:08 -0.04, -75.25 -0.57, -77.61 269.43 80
4 12/06/2019 03:12:38 -0.04, -75.27 0.11, -74.67 69.68 80
5 12/08/2019 02:57:47 -0.04, -75.31 0.71, -71.71 409.14 80
6 12/08/2019 15:19:03 0.04, -75.32 0.37, -76.87 175.65 80
7 12/10/2019 15:09:33 0.04, -75.36 -0.29, -73.92 164.09 80
8 12/11/2019 03:28:16 -0.04, -75.36 -0.85, -79.11 426.07 80
9 12/13/2019 03:16:06 -0.04, -75.40 -0.20, -76.16 86.18 80




NCC Satellite Simultaneous Nadir Overpasses (SNOs) Prediction Service
